TimePST,TemperatureF,Dew PointF,Humidity,Sea Level PressureIn,VisibilityMPH,Wind Direction,Wind SpeedMPH,Gust SpeedMPH,PrecipitationIn,Events,Conditions,WindDirDegrees,DateUTC
12:53 AM,43.0,33.1,68,30.06,10.0,Calm,Calm,-,N/A,,Clear,0,2014-01-03 08:53:00
1:53 AM,39.0,32.0,76,30.07,10.0,ENE,3.5,-,N/A,,Clear,60,2014-01-03 09:53:00
2:53 AM,41.0,30.9,67,30.06,10.0,Calm,Calm,-,N/A,,Clear,0,2014-01-03 10:53:00
3:53 AM,41.0,32.0,70,30.06,10.0,Calm,Calm,-,N/A,,Clear,0,2014-01-03 11:53:00
4:53 AM,37.9,30.9,76,30.05,10.0,ENE,3.5,-,N/A,,Clear,70,2014-01-03 12:53:00
5:53 AM,39.9,30.9,70,30.06,10.0,Calm,Calm,-,N/A,,Clear,0,2014-01-03 13:53:00
6:53 AM,37.9,30.9,76,30.07,10.0,Calm,Calm,-,N/A,,Clear,0,2014-01-03 14:53:00
7:53 AM,39.0,30.9,73,30.08,10.0,Calm,Calm,-,N/A,,Clear,0,2014-01-03 15:53:00
8:53 AM,42.1,33.1,70,30.08,10.0,Calm,Calm,-,N/A,,Clear,0,2014-01-03 16:53:00
9:53 AM,48.0,35.1,61,30.08,10.0,West,3.5,-,N/A,,Clear,270,2014-01-03 17:53:00
10:53 AM,55.0,30.9,40,30.05,10.0,Calm,Calm,-,N/A,,Clear,0,2014-01-03 18:53:00
11:53 AM,62.1,32.0,32,30.01,10.0,SW,3.5,-,N/A,,Clear,230,2014-01-03 19:53:00
12:53 PM,64.9,33.1,31,29.98,10.0,South,3.5,-,N/A,,Clear,190,2014-01-03 20:53:00
1:53 PM,66.9,33.1,28,29.97,10.0,ENE,8.1,-,N/A,,Scattered Clouds,70,2014-01-03 21:53:00
2:53 PM,66.0,36.0,33,29.96,8.0,East,9.2,-,N/A,,Clear,80,2014-01-03 22:53:00
3:53 PM,64.0,36.0,35,29.96,7.0,East,8.1,-,N/A,,Clear,80,2014-01-03 23:53:00
4:53 PM,61.0,36.0,39,29.96,7.0,Calm,Calm,-,N/A,,Clear,0,2014-01-04 00:53:00
5:53 PM,53.1,36.0,52,29.96,8.0,ENE,3.5,-,N/A,,Clear,70,2014-01-04 01:53:00
6:53 PM,52.0,35.1,53,29.96,8.0,ENE,3.5,-,N/A,,Clear,60,2014-01-04 02:53:00
7:53 PM,50.0,34.0,54,29.98,9.0,Calm,Calm,-,N/A,,Clear,0,2014-01-04 03:53:00
8:53 PM,46.9,34.0,61,29.99,9.0,Calm,Calm,-,N/A,,Clear,0,2014-01-04 04:53:00
9:53 PM,45.0,34.0,65,29.99,9.0,Calm,Calm,-,N/A,,Clear,0,2014-01-04 05:53:00
10:53 PM,44.1,33.1,65,29.99,8.0,Calm,Calm,-,N/A,,Clear,0,2014-01-04 06:53:00
11:53 PM,42.1,33.1,70,29.99,9.0,ENE,4.6,-,N/A,,Clear,60,2014-01-04 07:53:00